Regional Weather Roundup
Issued by NWS Midland/Odessa, TX

Skip options and go directly to product.
Home | Oldest Version | Next Version | Current Version | All | Text Only | Save Text | Print | Product List | Glossary On

Skip product version selection by date and time.   
199
ASUS44 KMAF 131210
RWRMAF
MIDLAND AREA WEATHER ROUNDUP
NATIONAL WEATHER SERVICE MIDLAND TX
600 AM CST SAT FEB 13 2016

...IN SOUTHWEST TEXAS AND SOUTHEAST NEW MEXICO...

CITY           SKY/WX    TMP DP  RH WIND       PRES   REMARKS
ALPINE         CLOUDY    40  20  43 W8        30.34S WCI  35
ANDREWS        FAIR      34  29  81 E5        30.30S WCI  30
ARTESIA        CLOUDY    34  23  64 NW8       30.29R WCI  27
BIG SPRING     CLOUDY    40  29  64 NE3       30.33S
CARLSBAD       CLOUDY    31  23  72 NW7       30.27R WCI  24
DRYDEN           N/A     50  38  63 NE6       30.25R
FORT STOCKTON  CLOUDY    47  30  51 S7        30.26R
GUAD PASS      CLOUDY    55  18  23 CALM      30.32R
HOBBS          CLOUDY    36  28  75 E6        30.30R WCI  31
MARFA          CLOUDY    29  17  61 N8        30.32S WCI  21
MIDLAND AIRPK  CLOUDY    41  32  70 E5        30.31R WCI  38
MIDLAND INTL   CLOUDY    42  32  67 E7        30.29S WCI  38
ODESSA         CLOUDY    43  32  65 E8        30.29S WCI  38
PECOS          CLOUDY    31  25  80 W5        30.27R WCI  26
PRESIDIO       FAIR      48  19  31 N13       30.25R
SEMINOLE       CLOUDY    34  30  83 E6        30.30S WCI  29
SNYDER           N/A     36  32  86 N7        30.34R WCI  30
WINK           CLOUDY    39  30  70 NE5       30.25S WCI  36
$$
...OTHER STATIONS IN TEXAS...

CITY           SKY/WX    TMP DP  RH WIND       PRES   REMARKS
ABILENE        CLEAR     41  33  73 E5        30.34R WCI  38
AMARILLO       CLEAR     30  27  88 S15       30.31R WCI  19
AUSTIN         CLEAR     46  38  73 N6        30.31R
BROWNSVILLE    CLEAR     55  55 100 SE6       30.27R
CORPUS CHRISTI PTCLDY    51  50  96 E5        30.29R FOG
DALLAS FTW     PTCLDY    39  29  67 N6        30.38R WCI  35
DEL RIO        CLEAR     51  42  71 E3        30.25R
EL PASO        MOCLDY    38  15  39 NE6       30.25R WCI  33
HOUSTON INT    PTCLDY    51  48  89 CALM      30.32R
LUBBOCK        CLEAR     31  28  89 E6        30.32R WCI  25
SAN ANGELO     CLEAR     36  29  75 CALM      30.31S
SAN ANTONIO    CLEAR     49  40  71 CALM      30.30R
WACO           CLEAR     41  33  73 N5        30.37R WCI  38
WICHITA FALLS  NOT AVBL
$$
...OTHER LOCATIONS IN NEW MEXICO...

CITY           SKY/WX    TMP DP  RH WIND       PRES   REMARKS
ALAMAGORDO     CLEAR     39   9  28 NE7       30.27S WCI  34
ALBUQUERQUE    CLOUDY    32  18  56 CALM      30.30S
CANNON AFB     CLEAR     33  28  81 S2        30.29F
CLOVIS         CLEAR     32  25  74 S6        30.30F WCI  26
HOLLOMAN AFB   PTCLDY    36  10  34 NE8       30.26R WCI  30
ROSWELL        CLOUDY    32  22  66 W3        30.28S
RUIDOSO          N/A     39  12  33 W7        30.36S WCI  34
SANTA FE       CLOUDY    32  22  66 N9        30.30S WCI  24
TRUTH OR CONSE MOCLDY    44  10  25 N7        30.27S
TUCUMCARI      CLEAR     35  25  66 SW7       30.26F WCI  29
$$

USA.gov is the U.S. government's official web portal to all federal, state and local government web resources and services.